Wind_Speed
36 36 37 38 39 40 40 41 41 42 43 43 43 43 43 43 44 44 45 45 46 46 46 46 46 46 46 46 46 46 46 47 47 47 48 48 48 47 47 47 48 48 48
36 37 37 37 39 39 41 42 42 43 43 43 44 44 44 44 44 45 45 46 47 47 48 48 47 47 47 48 48 48 47 48 48 48 48 48 48 49 49 49 50 50 50
36 37 39 38 39 40 40 41 42 43 43 44 44 44 44 44 44 45 46 46 47 47 48 48 48 48 49 49 49 49 49 49 49 49 49 49 49 48 49 50 50 51 51
36 37 38 39 39 40 39 40 42 42 43 43 44 45 44 45 46 47 48 48 47 48 48 49 49 49 49 49 49 50 50 50 50 50 50 51 51 50 49 50 51 52 52
35 37 37 38 39 39 39 40 41 41 42 43 44 45 45 46 46 47 47 47 48 48 49 49 49 49 49 49 50 50 50 50 50 50 50 50 50 50 50 49 50 50 52
34 35 36 37 38 39 39 40 41 42 43 43 43 44 44 45 46 46 47 47 48 49 49 49 49 50 49 49 49 49 50 50 50 50 50 50 50 50 50 50 49 49 50
34 35 35 36 37 38 38 39 40 42 43 44 44 43 44 45 46 46 46 47 47 48 48 49 49 49 49 49 49 49 49 49 50 50 50 50 50 50 50 49 48 48 47
34 35 35 35 36 37 37 38 39 40 41 43 44 44 45 45 45 45 45 46 46 47 48 48 48 48 48 48 49 49 49 49 50 50 50 49 49 50 49 48 47 46 45
34 35 35 35 35 36 36 37 38 38 39 41 42 43 44 45 45 45 45 46 46 46 47 48 48 48 48 48 48 48 49 49 49 49 49 49 48 48 48 47 47 46 45
33 34 35 35 35 36 36 37 37 37 38 39 41 42 42 43 44 44 44 44 45 46 47 47 47 47 47 47 47 47 47 47 47 48 49 48 47 47 47 46 46 46 45
32 32 33 34 35 36 36 36 37 38 38 39 39 41 41 41 42 42 43 43 43 43 44 44 45 45 45 45 46 46 46 46 46 47 47 47 47 46 47 46 46 46 45
31 31 32 33 34 35 36 36 37 37 37 38 39 39 40 40 41 41 42 42 41 42 42 42 43 43 43 44 44 45 45 45 45 44 44 45 45 44 44 44 44 44 44
31 31 31 32 33 34 34 35 35 36 37 37 38 38 38 38 39 40 40 41 40 40 41 41 41 41 42 42 43 44 44 44 43 42 42 43 43 42 43 43 43 43 43
32 31 31 31 32 33 34 34 35 35 35 36 36 36 36 35 36 37 38 38 39 38 39 39 39 40 40 40 41 41 41 41 40 39 40 40 40 40 40 40 40 41 41
32 31 31 31 32 32 33 34 34 34 34 34 34 35 34 35 34 35 36 36 36 37 37 38 38 38 39 39 39 39 38 38 37 37 37 38 38 38 38 38 38 38 39
32 32 32 32 32 32 32 32 33 33 33 33 34 34 34 34 33 34 35 35 36 36 36 37 38 38 38 38 37 37 36 36 35 36 36 36 36 36 36 36 36 37 37
33 32 32 31 31 31 31 31 32 32 32 32 33 33 33 33 33 34 34 34 34 35 35 35 36 36 36 36 35 36 35 35 35 35 34 34 34 33 33 34 35 35 35
32 31 31 31 31 31 31 30 31 32 32 32 32 33 33 33 34 34 34 34 34 34 34 34 34 34 34 34 34 34 34 34 33 33 33 33 32 31 32 32 33 33 34
31 31 31 31 31 31 30 30 30 31 31 32 31 31 32 33 33 33 33 33 32 32 32 32 32 31 31 32 32 33 33 32 32 32 32 32 32 31 31 31 31 32 33
31 31 31 31 30 30 30 30 30 30 30 30 30 30 31 32 33 32 32 32 31 31 31 31 30 30 31 31 31 32 32 31 31 31 32 32 32 32 31 31 31 31 32
31 30 30 29 29 29 29 29 28 29 28 29 29 30 31 31 31 31 31 30 30 30 29 29 29 29 29 29 29 30 30 30 30 31 31 31 31 31 31 31 31 31 31
28 28 28 27 27 26 26 26 26 26 26 26 27 27 28 28 28 27 27 28 28 27 26 26 26 26 26 26 26 26 27 27 27 28 28 28 29 29 29 30 30 30 30
26 26 26 25 25 24 24 24 24 24 24 24 24 25 25 25 25 25 24 24 24 24 23 23 23 23 23 23 24 24 25 26 26 26 26 26 26 26 27 27 27 27 27
24 24 24 24 24 24 23 23 23 23 23 24 23 23 24 23 23 22 22 22 21 21 21 20 20 20 21 21 21 22 22 23 23 23 23 23 23 24 24 24 24 24 25
23 23 23 23 22 22 22 22 23 23 23 23 23 22 22 21 21 20 20 19 19 19 19 19 19 18 18 18 19 20 20 20 21 21 21 21 21 21 22 23 23 23 24
23 23 23 22 22 21 21 22 22 22 23 23 22 21 21 20 20 19 19 18 18 18 17 18 18 17 16 17 17 18 18 18 18 18 18 19 20 20 21 22 22 22 21
Wind_Direction
260 259 259 258 256 255 256 256 256 256 256 256 257 258 259 260 260 260 261 262 262 263 264 265 266 265 266 266 266 266 266 266 266 266 266 266 267 267 267 267 267 268 268
259 259 259 258 257 258 258 256 256 257 257 257 258 259 259 260 260 261 262 263 264 265 265 266 266 266 266 267 267 267 266 266 267 267 268 268 267 267 268 267 268 268 268
260 260 259 260 259 259 259 258 256 256 257 257 257 259 260 261 261 261 262 263 265 265 266 266 266 266 267 267 267 267 267 267 267 267 269 269 268 268 268 268 269 269 269
261 260 260 261 262 262 261 260 258 258 258 258 259 261 262 263 263 263 264 264 265 265 266 267 266 267 268 268 267 267 267 267 267 268 268 269 269 269 268 269 269 269 268
264 264 263 263 264 264 262 261 260 260 261 261 260 261 262 263 265 265 265 265 266 266 267 267 267 267 268 268 268 268 268 269 268 268 269 270 270 270 270 270 270 269 269
268 267 266 264 265 265 264 263 261 261 262 262 262 263 263 264 265 265 266 266 267 268 267 267 267 267 268 268 268 268 268 268 268 269 269 270 271 271 271 271 270 270 269
269 268 269 267 266 266 266 264 264 263 263 264 263 264 265 265 266 266 267 268 268 269 268 267 267 267 267 267 268 268 268 268 268 268 269 270 271 271 271 271 270 270 270
271 270 269 268 267 268 268 266 265 265 264 264 264 265 266 266 266 266 267 268 269 268 268 267 267 267 267 267 267 268 268 269 269 269 269 270 271 271 270 270 270 270 270
272 270 269 269 268 268 268 267 267 267 266 266 266 265 267 267 266 266 267 269 269 268 267 267 266 267 267 267 268 268 268 269 269 269 269 270 270 270 269 270 271 271 271
274 272 270 269 269 269 269 268 268 268 267 268 267 266 267 268 266 267 268 269 269 269 267 266 266 266 266 267 268 268 268 269 270 271 270 269 269 269 269 270 271 272 272
274 272 271 270 268 268 269 269 269 269 269 270 269 268 269 269 269 268 268 270 270 271 269 268 267 266 267 268 268 268 268 269 270 271 270 269 269 269 269 270 271 272 272
274 272 271 270 270 269 270 269 270 271 271 272 272 271 270 271 270 269 269 270 271 270 270 268 267 267 268 269 269 269 268 269 270 270 271 271 270 269 269 269 269 271 271
276 274 272 272 271 270 270 270 271 273 274 274 273 273 273 273 271 269 269 270 270 270 269 268 267 268 268 269 269 269 269 269 270 271 271 270 270 269 269 268 269 270 271
276 275 273 272 272 271 272 272 272 273 274 274 274 273 273 274 272 271 270 270 269 270 269 266 266 267 268 268 268 268 269 270 270 271 271 271 270 269 268 268 268 269 269
276 275 275 274 274 274 274 274 273 273 273 274 275 274 273 273 272 271 270 270 270 270 270 268 266 267 267 268 268 267 267 268 269 269 270 270 270 269 269 268 268 268 269
275 274 275 276 276 276 276 275 274 274 274 275 275 275 274 274 273 272 271 270 270 270 271 269 268 267 267 268 267 266 266 267 268 269 270 270 270 270 269 268 268 269 270
278 277 276 276 276 276 276 275 275 275 274 275 275 275 275 275 274 274 272 271 271 271 271 270 269 268 269 269 268 267 266 268 269 269 270 270 270 270 269 268 268 270 271
279 278 277 276 276 277 278 278 277 275 275 276 276 276 275 276 276 276 275 274 273 271 272 271 270 269 268 268 268 268 267 268 269 270 270 269 268 269 269 270 270 270 272
279 278 277 276 276 277 278 278 279 278 277 277 277 276 276 277 278 277 275 274 274 272 271 271 268 268 267 267 267 267 267 268 269 270 270 269 268 268 269 270 271 272 273
279 277 276 276 277 278 278 278 279 279 278 277 277 278 278 278 279 278 277 275 274 272 271 270 267 267 268 268 268 267 267 268 268 269 269 269 268 268 269 271 272 274 274
278 277 277 277 278 278 278 277 277 279 279 279 279 279 279 279 279 279 277 276 274 273 271 270 268 267 267 267 268 267 267 268 269 269 269 269 269 269 270 273 274 275 274
277 276 276 276 277 278 277 276 276 278 280 281 281 280 280 281 281 279 278 277 276 275 273 272 269 267 267 267 267 266 266 269 270 269 269 269 270 270 271 273 275 275 276
275 274 275 276 278 278 277 277 277 278 280 282 283 282 281 281 281 280 278 276 275 275 273 271 269 268 267 267 267 268 269 271 272 272 271 270 270 270 271 273 275 276 277
276 275 275 277 277 278 276 276 276 279 282 284 286 285 283 282 281 280 277 276 275 275 273 270 268 268 268 267 267 269 271 272 272 271 270 270 269 270 272 275 277 277 279
276 276 278 278 278 277 276 276 277 279 282 284 284 284 283 283 283 280 277 277 277 274 271 270 268 268 268 267 268 271 271 270 271 271 270 270 272 274 276 277 277 277 278
277 276 277 278 277 277 276 278 280 280 282 284 283 282 283 286 284 280 277 276 275 273 271 269 268 265 265 266 269 270 271 271 270 270 271 271 273 275 277 279 279 278 277
Height
5690 5691 5692 5694 5696 5698 5700 5701 5703 5704 5706 5707 5709 5711 5712 5713 5714 5715 5717 5718 5719 5720 5721 5722 5723 5724 5724 5725 5726 5726 5727 5728 5729 5730 5731 5731 5731 5732 5732 5732 5732 5732 5732
5680 5682 5683 5685 5686 5688 5689 5691 5693 5694 5695 5697 5698 5700 5702 5703 5704 5705 5706 5707 5708 5709 5710 5711 5711 5712 5712 5713 5714 5715 5715 5716 5717 5717 5718 5719 5721 5720 5720 5720 5720 5720 5720
5672 5673 5674 5675 5676 5678 5679 5680 5682 5683 5685 5686 5688 5689 5690 5691 5693 5694 5695 5696 5697 5697 5698 5699 5699 5700 5700 5701 5702 5703 5704 5704 5705 5704 5705 5706 5707 5708 5708 5707 5707 5707 5707
5662 5663 5664 5665 5666 5667 5668 5670 5671 5672 5673 5675 5677 5678 5680 5681 5681 5683 5683 5684 5685 5685 5686 5687 5687 5688 5688 5689 5690 5690 5691 5692 5692 5692 5692 5693 5693 5694 5696 5696 5694 5693 5693
5653 5654 5655 5656 5657 5657 5658 5659 5660 5661 5662 5664 5665 5667 5668 5669 5670 5671 5672 5672 5673 5673 5674 5674 5675 5675 5676 5676 5677 5677 5678 5678 5679 5679 5679 5679 5679 5679 5680 5682 5681 5680 5680
5643 5644 5645 5646 5647 5647 5648 5649 5649 5650 5651 5653 5654 5655 5657 5658 5658 5659 5660 5660 5661 5661 5661 5661 5662 5662 5663 5663 5664 5664 5665 5665 5665 5666 5666 5666 5666 5666 5666 5667 5667 5667 5667
5634 5635 5635 5636 5637 5637 5638 5638 5639 5639 5640 5641 5643 5644 5645 5646 5647 5647 5648 5648 5648 5648 5648 5649 5649 5649 5650 5650 5651 5651 5652 5652 5653 5653 5653 5653 5653 5653 5653 5653 5653 5654 5654
5625 5625 5626 5626 5627 5627 5628 5628 5628 5628 5629 5630 5631 5632 5633 5634 5634 5635 5635 5636 5636 5636 5636 5636 5636 5636 5637 5637 5638 5639 5639 5639 5640 5640 5640 5640 5640 5640 5639 5639 5640 5641 5642
5615 5616 5616 5616 5617 5617 5618 5618 5618 5618 5618 5619 5620 5621 5621 5622 5622 5623 5623 5623 5623 5623 5623 5623 5624 5624 5624 5625 5625 5626 5626 5627 5627 5627 5626 5626 5627 5627 5626 5626 5627 5627 5628
5607 5606 5607 5607 5607 5607 5607 5608 5608 5608 5608 5608 5609 5609 5609 5610 5610 5610 5611 5611 5611 5611 5611 5611 5611 5611 5612 5612 5612 5613 5613 5614 5614 5614 5613 5614 5614 5614 5614 5614 5614 5614 5615
5598 5597 5597 5598 5598 5598 5598 5597 5597 5597 5597 5597 5597 5597 5598 5598 5598 5598 5599 5599 5599 5598 5598 5598 5598 5599 5599 5600 5600 5601 5601 5601 5601 5601 5601 5601 5601 5601 5601 5601 5602 5602 5602
5590 5589 5589 5588 5588 5588 5588 5588 5588 5587 5587 5587 5586 5586 5586 5587 5587 5587 5587 5587 5587 5587 5586 5586 5587 5587 5588 5588 5588 5589 5589 5589 5589 5589 5589 5589 5589 5589 5589 5589 5590 5590 5590
5581 5580 5580 5579 5579 5579 5579 5578 5578 5577 5577 5576 5576 5575 5576 5575 5575 5575 5575 5576 5575 5575 5575 5575 5575 5576 5576 5577 5577 5577 5577 5577 5577 5577 5577 5577 5577 5577 5577 5577 5578 5579 5579
5572 5572 5571 5571 5570 5570 5569 5569 5568 5568 5567 5566 5566 5566 5565 5564 5564 5564 5564 5564 5564 5564 5564 5563 5564 5564 5565 5565 5565 5565 5566 5566 5566 5566 5566 5566 5566 5566 5566 5566 5567 5568 5569
5564 5563 5562 5562 5561 5560 5560 5559 5558 5558 5557 5557 5556 5556 5555 5554 5553 5553 5553 5553 5553 5553 5553 5553 5553 5553 5554 5554 5554 5554 5555 5555 5555 5555 5555 5555 5555 5555 5555 5556 5557 5558 5558
5555 5554 5554 5553 5552 5551 5550 5550 5549 5549 5548 5547 5547 5546 5545 5544 5543 5543 5543 5543 5543 5543 5543 5543 5543 5543 5543 5543 5543 5544 5544 5544 5545 5545 5545 5545 5545 5545 5546 5546 5547 5548 5548
5546 5545 5544 5544 5543 5542 5541 5541 5540 5539 5539 5538 5537 5537 5536 5535 5534 5533 5533 5532 5532 5532 5533 5533 5533 5533 5533 5533 5533 5533 5534 5535 5535 5535 5535 5535 5536 5536 5536 5537 5537 5538 5538
5537 5536 5536 5535 5534 5533 5533 5532 5531 5530 5530 5529 5528 5528 5527 5526 5525 5524 5523 5523 5522 5523 5523 5523 5523 5523 5523 5523 5524 5524 5524 5525 5526 5526 5526 5527 5527 5527 5527 5528 5528 5529 5529
5528 5528 5527 5526 5525 5525 5524 5523 5522 5521 5521 5520 5519 5518 5517 5516 5515 5514 5514 5513 5513 5513 5513 5513 5513 5513 5514 5514 5514 5515 5516 5516 5517 5517 5517 5518 5518 5518 5519 5519 5520 5520 5520
5519 5519 5518 5517 5517 5516 5516 5515 5513 5512 5512 5511 5510 5509 5508 5507 5506 5505 5505 5504 5504 5504 5504 5504 5504 5505 5505 5505 5506 5506 5507 5508 5508 5508 5509 5509 5510 5510 5510 5511 5512 5512 5512
5510 5509 5509 5509 5508 5508 5507 5506 5506 5505 5504 5503 5502 5501 5500 5499 5498 5497 5496 5496 5495 5495 5495 5495 5496 5496 5497 5497 5497 5497 5498 5499 5499 5500 5500 5501 5501 5501 5502 5502 5503 5503 5503
5501 5501 5500 5500 5500 5499 5499 5498 5498 5497 5496 5495 5493 5492 5491 5490 5489 5489 5488 5488 5487 5487 5487 5487 5487 5488 5489 5489 5489 5489 5490 5491 5491 5492 5492 5493 5493 5493 5494 5494 5494 5494 5494
5494 5493 5493 5492 5492 5492 5491 5491 5490 5489 5488 5487 5486 5485 5484 5483 5482 5482 5481 5480 5480 5480 5480 5480 5481 5481 5481 5482 5482 5482 5483 5483 5484 5484 5484 5484 5485 5485 5486 5486 5486 5486 5486
5486 5486 5486 5485 5485 5484 5484 5484 5483 5483 5482 5481 5480 5479 5478 5477 5476 5475 5474 5473 5473 5473 5473 5473 5474 5474 5475 5475 5476 5476 5476 5476 5477 5477 5477 5477 5478 5478 5479 5479 5479 5479 5478
5480 5479 5479 5478 5478 5478 5477 5477 5476 5476 5475 5475 5473 5472 5471 5470 5470 5469 5468 5467 5467 5467 5467 5468 5468 5468 5469 5470 5470 5470 5470 5470 5470 5470 5471 5471 5472 5472 5472 5472 5472 5471 5471
5473 5473 5472 5472 5471 5471 5471 5470 5470 5469 5469 5468 5467 5466 5465 5464 5464 5463 5462 5462 5461 5461 5461 5462 5462 5463 5464 5464 5464 5464 5464 5464 5464 5465 5465 5465 5466 5466 5466 5465 5465 5465 5465